Powrót do katalogu

ONEWEB-0054

AktywnyŁącznośćPO
NORAD 45158·PAYLOAD·🇬🇧 United Kingdom

Wystrzelony Feb 6, 2020 z Baikonur Cosmodrome

Loading…

Następne Przeloty (najbliższe 24 godziny)

TLE

ŚwieżeSource: CelesTrak SupGP

Epoka: Sep 14, 2026, 23:29 UTC

1 45158C 20008AD  26257.97898563 -.00001530  00000+0 -43898-2 0  2571
2 45158  87.8895  18.3920 0001706 104.2958   5.6074 13.10369911    13

Śledź ONEWEB-0054 w czasie rzeczywistym z AllMySat

Download on the App Store